Weather History for Chester, SC

Change the Weather History Date:

Friday, February 8, 2013

  Actual Average (KUZA) Record (KUZA)
Temperature  
Mean Temperature 50 °F -  
Max Temperature 60 °F 53 °F 73 °F (1965)
Min Temperature 41 °F 31 °F 14 °F (1951)
Degree Days  
Heating Degree Days 14    
Moisture  
Dew Point 40 °F    
Average Humidity 75    
Maximum Humidity 100    
Minimum Humidity 47    
Precipitation  
Precipitation 0.00 in - - ()
Sea Level Pressure  
Sea Level Pressure 29.96 in    
Wind  
Wind Speed 10 mph (NW)    
Max Wind Speed 17 mph    
Max Gust Speed 23 mph    
Visibility 10 miles    
Events      
Averages and records for this station are not official NWS values.
T = Trace of Precipitation, MM = Missing Value Source: NWS Daily Summary

Daily Weather History Graph

Daily Weather History Graph

Search for Another Location

Airport:

Trip Planner

Search our weather history database for the weather conditions in past years. The results will help you decide how hot, cold, wet, or windy it might be!

Date:

Astronomy

Feb. 08, 2013 Rise Set
Actual Time 7:17 AM EST 6:01 PM EST
Civil Twilight 6:51 AM EST 6:27 PM EST
Nautical Twilight 6:21 AM EST 6:57 PM EST
Astronomical Twilight 5:51 AM EST 7:26 PM EST
Moon 5:42 AM EST (2/8) 4:34 PM EST (2/8)
Length of Visible Light 11h 36m
Length of Day
10h 44m
Waning Crescent, 3% of the Moon is Illuminated
Feb 8
Waning Crescent
Feb 10
New
Feb 17
First Quarter
Feb 25
Full
Mar 4
Last Quarter

Hourly Weather History & Observations

Time (EST) Temp. Windchill Dew Point Humidity Pressure Visibility Wind Dir Wind Speed Gust Speed Precip Events Conditions
12:15 AM 41.0 °F 32.5 °F 41.0 °F 100% 29.95 in 10.0 mi North 17.3 mph - N/A   Light Drizzle
12:35 AM 41.0 °F 33.1 °F 41.0 °F 100% 29.94 in 10.0 mi North 15.0 mph 23.0 mph N/A   Overcast
12:55 AM 41.0 °F 32.8 °F 41.0 °F 100% 29.94 in 10.0 mi North 16.1 mph 20.7 mph N/A   Light Drizzle
1:15 AM 41.0 °F 33.9 °F 41.0 °F 100% 29.92 in 10.0 mi North 12.7 mph - N/A   Overcast
1:35 AM 41.0 °F 33.1 °F 41.0 °F 100% 29.91 in 10.0 mi North 15.0 mph - N/A   Overcast
1:55 AM 41.0 °F 33.5 °F 41.0 °F 100% 29.91 in 10.0 mi North 13.8 mph - N/A   Overcast
2:35 AM 41.0 °F 34.3 °F 41.0 °F 100% 29.89 in 10.0 mi North 11.5 mph - N/A   Overcast
2:55 AM 41.0 °F 33.9 °F 41.0 °F 100% 29.90 in 10.0 mi North 12.7 mph - N/A   Overcast
3:15 AM 41.0 °F 33.9 °F 41.0 °F 100% 29.90 in 10.0 mi North 12.7 mph 17.3 mph N/A   Overcast
3:35 AM 41.0 °F 34.7 °F 41.0 °F 100% 29.92 in 10.0 mi NNW 10.4 mph - N/A   Overcast
4:15 AM 41.0 °F 34.3 °F 41.0 °F 100% 29.92 in 10.0 mi North 11.5 mph - N/A   Overcast
4:55 AM 41.0 °F 35.2 °F 41.0 °F 100% 29.91 in 10.0 mi NNW 9.2 mph - N/A   Overcast
5:15 AM 41.0 °F 33.9 °F 41.0 °F 100% 29.90 in 10.0 mi North 12.7 mph - N/A   Overcast
5:55 AM 41.0 °F 35.2 °F 41.0 °F 100% 29.92 in 10.0 mi NNW 9.2 mph - N/A   Overcast
6:15 AM 41.0 °F 35.2 °F 41.0 °F 100% 29.91 in 7.0 mi North 9.2 mph - N/A   Overcast
6:35 AM 41.0 °F 34.7 °F 41.0 °F 100% 29.92 in 10.0 mi North 10.4 mph - N/A   Overcast
6:55 AM 41.0 °F 35.2 °F 41.0 °F 100% 29.92 in 10.0 mi North 9.2 mph - N/A   Overcast
7:35 AM 41.0 °F 36.4 °F 41.0 °F 100% 29.93 in 10.0 mi North 6.9 mph - N/A   Overcast
7:55 AM 41.0 °F 36.4 °F 41.0 °F 100% 29.94 in 10.0 mi NNW 6.9 mph - N/A   Overcast
8:15 AM 41.0 °F 39.0 °F 41.0 °F 100% 29.94 in 10.0 mi North 3.5 mph - N/A   Overcast
8:35 AM 41.0 °F 38.0 °F 41.0 °F 100% 29.96 in 10.0 mi WNW 4.6 mph - N/A   Overcast
8:55 AM 42.8 °F 39.3 °F 41.0 °F 93% 29.95 in 10.0 mi North 5.8 mph - N/A   Overcast
9:15 AM 42.8 °F 39.3 °F 41.0 °F 93% 29.96 in 10.0 mi North 5.8 mph - N/A   Mostly Cloudy
9:35 AM 44.6 °F 40.7 °F 42.8 °F 93% 29.96 in 10.0 mi North 6.9 mph - N/A   Mostly Cloudy
9:55 AM 44.6 °F 42.2 °F 41.0 °F 87% 29.97 in 10.0 mi NW 4.6 mph - N/A   Mostly Cloudy
10:15 AM 48.2 °F - 41.0 °F 76% 29.97 in 10.0 mi West 4.6 mph - N/A   Mostly Cloudy
10:35 AM 48.2 °F - 41.0 °F 76% 29.97 in 10.0 mi South 3.5 mph - N/A   Scattered Clouds
10:55 AM 50.0 °F - 42.8 °F 76% 29.96 in 10.0 mi Calm Calm - N/A   Clear
11:15 AM 51.8 °F - 42.8 °F 71% 29.96 in 10.0 mi WSW 4.6 mph - N/A   Clear
11:35 AM 51.8 °F - 42.8 °F 71% 29.95 in 10.0 mi West 6.9 mph - N/A   Clear
11:55 AM 53.6 °F - 44.6 °F 72% 29.94 in 10.0 mi SW 3.5 mph - N/A   Mostly Cloudy
12:15 PM 55.4 °F - 44.6 °F 67% 29.94 in 10.0 mi West 6.9 mph - N/A   Mostly Cloudy
12:35 PM 55.4 °F - 44.6 °F 67% 29.93 in 10.0 mi West 6.9 mph - N/A   Mostly Cloudy
12:55 PM 59.0 °F - 44.6 °F 59% 29.92 in 10.0 mi West 6.9 mph - N/A   Scattered Clouds
1:15 PM 59.0 °F - 44.6 °F 59% 29.91 in 10.0 mi West 10.4 mph 16.1 mph N/A   Scattered Clouds
1:35 PM 59.0 °F - 44.6 °F 59% 29.90 in 10.0 mi West 8.1 mph - N/A   Scattered Clouds
1:55 PM 60.8 °F - 46.4 °F 59% 29.90 in 10.0 mi WSW 9.2 mph - N/A   Scattered Clouds
2:15 PM 60.8 °F - 46.4 °F 59% 29.89 in 10.0 mi West 9.2 mph - N/A   Mostly Cloudy
2:35 PM 60.8 °F - 46.4 °F 59% 29.89 in 10.0 mi West 9.2 mph - N/A   Overcast
3:15 PM 60.8 °F - 46.4 °F 59% 29.89 in 10.0 mi West 4.6 mph - N/A   Overcast
3:35 PM 60.8 °F - 46.4 °F 59% 29.89 in 10.0 mi West 6.9 mph - N/A   Mostly Cloudy
3:55 PM 60.8 °F - 46.4 °F 59% 29.90 in 10.0 mi WNW 4.6 mph - N/A   Scattered Clouds
4:15 PM 60.8 °F - 46.4 °F 59% 29.90 in 10.0 mi WNW 5.8 mph - N/A   Scattered Clouds
4:35 PM 60.8 °F - 46.4 °F 59% 29.91 in 10.0 mi WNW 10.4 mph 18.4 mph N/A   Overcast
4:55 PM 59.0 °F - 46.4 °F 63% 29.92 in 10.0 mi WNW 4.6 mph - N/A   Overcast
5:15 PM 57.2 °F - 42.8 °F 59% 29.93 in 10.0 mi WNW 5.8 mph - N/A   Scattered Clouds
5:55 PM 55.4 °F - 35.6 °F 47% 29.95 in 10.0 mi West 5.8 mph - N/A   Clear
6:15 PM 53.6 °F - 35.6 °F 51% 29.96 in 10.0 mi WNW 5.8 mph - N/A   Clear
6:35 PM 51.8 °F - 35.6 °F 54% 29.97 in 10.0 mi WNW 3.5 mph - N/A   Clear
6:55 PM 51.8 °F - 35.6 °F 54% 29.98 in 10.0 mi WNW 5.8 mph - N/A   Clear
7:15 PM 51.8 °F - 33.8 °F 50% 29.99 in 10.0 mi NW 4.6 mph - N/A   Clear
7:35 PM 51.8 °F - 33.8 °F 50% 29.99 in 10.0 mi WNW 6.9 mph - N/A   Clear
7:55 PM 50.0 °F - 33.8 °F 54% 30.00 in 10.0 mi WNW 5.8 mph - N/A   Clear
8:15 PM 50.0 °F - 32.0 °F 50% 30.01 in 10.0 mi WNW 5.8 mph - N/A   Clear
8:35 PM 48.2 °F - 32.0 °F 54% 30.02 in 10.0 mi WNW 4.6 mph - N/A   Clear
8:55 PM 50.0 °F - 32.0 °F 50% 30.03 in 10.0 mi WNW 6.9 mph - N/A   Clear
9:15 PM 46.4 °F 43.5 °F 32.0 °F 57% 30.04 in 10.0 mi WNW 5.8 mph - N/A   Clear
9:35 PM 46.4 °F 43.5 °F 32.0 °F 57% 30.05 in 10.0 mi WNW 5.8 mph - N/A   Clear
9:55 PM 46.4 °F 42.4 °F 32.0 °F 57% 30.06 in 10.0 mi WNW 8.1 mph - N/A   Clear
10:15 PM 46.4 °F 42.9 °F 32.0 °F 57% 30.07 in 10.0 mi WNW 6.9 mph - N/A   Clear
10:35 PM 46.4 °F 42.9 °F 32.0 °F 57% 30.08 in 10.0 mi NW 6.9 mph - N/A   Clear
10:55 PM 44.6 °F 39.7 °F 32.0 °F 61% 30.09 in 10.0 mi NNW 9.2 mph - N/A   Clear
11:15 PM 44.6 °F 39.2 °F 32.0 °F 61% 30.09 in 10.0 mi NNW 10.4 mph 17.3 mph N/A   Clear
11:35 PM 44.6 °F 41.4 °F 32.0 °F 61% 30.11 in 10.0 mi NNW 5.8 mph - N/A   Clear
11:55 PM 42.8 °F 38.6 °F 32.0 °F 66% 30.12 in 10.0 mi NW 6.9 mph - N/A   Clear